Mobile, AL

8:05 PM CST on February 09, 2016 (GMT -0600)
Mobile Downtown

Weather History for KBFM - March, 2014

Change the Weather History Date:

Sunday, March 16, 2014

  Actual Average Record
Temperature  
Mean Temperature 66 °F -  
Max Temperature 71 °F 66 °F 82 °F (2015)
Min Temperature 61 °F 49 °F 32 °F (2004)
Cooling Degree Days 1    
Growing Degree Days 16 (Base 50)    
Moisture  
Dew Point 63 °F    
Average Humidity 93    
Maximum Humidity 97    
Minimum Humidity 87    
Precipitation  
Precipitation 1.96 in - - ()
Sea Level Pressure  
Sea Level Pressure 29.73 in    
Wind  
Wind Speed 13 mph (South)    
Max Wind Speed 24 mph    
Max Gust Speed 34 mph    
Visibility 7 miles    
Events Fog , Rain , Thunderstorm    
Averages and records for this station are not official NWS values.
T = Trace of Precipitation, MM = Missing Value Source: NWS Daily Summary

Daily Weather History Graph

Daily Weather History Graph

Search for Another Location

Airport or City:

Trip Planner

Search our weather history database for the weather conditions in past years. The results will help you decide how hot, cold, wet, or windy it might be!

Date:

Astronomy

Mar. 16, 2014 Rise Set
Actual Time 7:00 AM CDT 7:01 PM CDT
Civil Twilight 6:36 AM CDT 7:25 PM CDT
Nautical Twilight 6:09 AM CDT 7:53 PM CDT
Astronomical Twilight 5:40 AM CDT 8:21 PM CDT
Moon 7:15 PM CDT (3/16) 6:45 AM CDT (3/16)
Length of Visible Light 12h 48m
Length of Day
12h 00m
Full, 100% of the Moon is Illuminated
Mar 16
Full
Mar 16
Full
Mar 23
Last Quarter
Mar 30
New
Apr 7
First Quarter

Hourly Weather History & Observations

Time (CDT) Temp. Dew Point Humidity Pressure Visibility Wind Dir Wind Speed Gust Speed Precip Events Conditions
12:19 AM 64.0 °F 62.1 °F 93% 29.88 in 10.0 mi SSE 15.0 mph 21.9 mph N/A   Overcast
12:53 AM 64.0 °F 62.1 °F 93% 29.86 in 10.0 mi SE 17.3 mph 24.2 mph N/A   Overcast
1:53 AM 64.9 °F 62.1 °F 90% 29.83 in 10.0 mi SE 18.4 mph 26.5 mph N/A   Overcast
2:02 AM 64.9 °F 62.1 °F 90% 29.82 in 10.0 mi SE 19.6 mph 27.6 mph N/A   Overcast
2:53 AM 64.0 °F 61.0 °F 90% 29.80 in 10.0 mi SSE 13.8 mph 24.2 mph N/A   Overcast
3:16 AM 64.0 °F 61.0 °F 90% 29.78 in 10.0 mi SSE 18.4 mph 26.5 mph N/A   Overcast
3:26 AM 64.0 °F 61.0 °F 90% 29.76 in 10.0 mi SSE 17.3 mph 25.3 mph N/A   Overcast
3:53 AM 64.0 °F 62.1 °F 93% 29.75 in 10.0 mi SSE 16.1 mph 24.2 mph 0.00 in   Overcast
4:21 AM 64.0 °F 62.1 °F 93% 29.74 in 9.0 mi South 11.5 mph 18.4 mph N/A   Overcast
4:45 AM 64.0 °F 62.1 °F 93% 29.73 in 8.0 mi Variable 6.9 mph - N/A   Overcast
4:53 AM 64.0 °F 62.1 °F 93% 29.73 in 7.0 mi Variable 6.9 mph - N/A   Overcast
5:18 AM 64.0 °F 63.0 °F 96% 29.72 in 8.0 mi South 12.7 mph 21.9 mph N/A   Overcast
5:53 AM 64.9 °F 64.0 °F 97% 29.71 in 7.0 mi South 12.7 mph - N/A   Overcast
6:11 AM 64.9 °F 63.0 °F 93% 29.70 in 6.0 mi South 12.7 mph 20.7 mph N/A   Overcast
6:53 AM 64.9 °F 64.0 °F 97% 29.67 in 5.0 mi South 15.0 mph 28.8 mph 0.00 in   Overcast
7:42 AM 66.0 °F 64.9 °F 96% 29.66 in 5.0 mi South 13.8 mph 27.6 mph N/A Thunderstorm Overcast
7:53 AM 70.0 °F 66.9 °F 90% 29.69 in 8.0 mi South 17.3 mph 28.8 mph N/A Thunderstorm Overcast
8:19 AM 71.1 °F 66.9 °F 87% 29.71 in 8.0 mi SSW 10.4 mph 28.8 mph 0.00 in Rain , Thunderstorm Light Thunderstorms and Rain
8:29 AM 70.0 °F 66.9 °F 90% 29.71 in 1.8 mi South 15.0 mph 26.5 mph 0.08 in Rain , Thunderstorm Heavy Thunderstorms and Rain
8:34 AM 70.0 °F 66.9 °F 90% 29.72 in 3.0 mi SSW 12.7 mph 26.5 mph 0.08 in Rain , Thunderstorm Light Rain
8:45 AM 68.0 °F 66.0 °F 93% 29.76 in 4.0 mi West 17.3 mph 28.8 mph 0.13 in Rain , Thunderstorm Light Thunderstorms and Rain
8:49 AM 64.4 °F 62.6 °F 94% 29.76 in 1.5 mi West 24.2 mph 34.5 mph 0.33 in Rain , Thunderstorm Heavy Thunderstorms and Rain
8:53 AM 63.0 °F 61.0 °F 93% 29.75 in 0.8 mi West 13.8 mph 34.5 mph 0.68 in Rain , Thunderstorm Heavy Thunderstorms and Rain
9:05 AM 63.0 °F 61.0 °F 93% 29.73 in 0.2 mi West 8.1 mph 23.0 mph 0.65 in Fog , Rain , Thunderstorm Heavy Thunderstorms and Rain
9:08 AM 63.0 °F 61.0 °F 93% 29.73 in 0.5 mi West 11.5 mph 23.0 mph 0.71 in Fog , Rain , Thunderstorm Heavy Thunderstorms and Rain
9:10 AM 63.0 °F 61.0 °F 93% 29.74 in 4.0 mi WSW 11.5 mph 19.6 mph 0.72 in Rain , Thunderstorm Heavy Thunderstorms and Rain
9:53 AM 64.0 °F 62.1 °F 93% 29.75 in 4.0 mi SW 4.6 mph - 0.90 in Rain , Thunderstorm Heavy Thunderstorms and Rain
9:55 AM 64.0 °F 62.1 °F 93% 29.74 in 2.0 mi SW 5.8 mph - 0.01 in Rain , Thunderstorm Heavy Rain
10:30 AM 64.0 °F 63.0 °F 96% 29.73 in 4.0 mi SSW 3.5 mph - 0.12 in Rain Rain
10:51 AM 64.4 °F 62.6 °F 94% 29.74 in 10.0 mi SSW 4.6 mph - 0.13 in Thunderstorm Overcast
10:53 AM 64.9 °F 63.0 °F 93% 29.74 in 10.0 mi Variable 3.5 mph - 0.13 in Thunderstorm Overcast
11:12 AM 64.9 °F 64.0 °F 97% 29.74 in 10.0 mi SSW 4.6 mph - N/A   Overcast
11:40 AM 66.0 °F 64.0 °F 93% 29.74 in 10.0 mi SW 4.6 mph - N/A   Overcast
11:53 AM 66.0 °F 64.0 °F 93% 29.74 in 10.0 mi Variable 4.6 mph - N/A   Overcast
12:53 PM 64.0 °F 63.0 °F 96% 29.72 in 10.0 mi South 11.5 mph - N/A   Overcast
1:53 PM 66.9 °F 64.9 °F 93% 29.67 in 5.0 mi South 6.9 mph - N/A   Overcast
2:39 PM 69.1 °F 66.0 °F 90% 29.64 in 7.0 mi SSW 6.9 mph - N/A   Mostly Cloudy
2:53 PM 70.0 °F 66.0 °F 87% 29.64 in 7.0 mi SW 5.8 mph - N/A   Mostly Cloudy
3:53 PM 68.0 °F 64.9 °F 90% 29.65 in 7.0 mi South 8.1 mph - 0.00 in Rain Light Rain
4:53 PM 66.9 °F 64.0 °F 90% 29.70 in 5.0 mi West 8.1 mph - 0.03 in Rain Rain
5:53 PM 66.0 °F 64.9 °F 96% 29.67 in 6.0 mi SSW 4.6 mph - 0.07 in Rain Light Rain
6:53 PM 64.9 °F 64.0 °F 97% 29.70 in 6.0 mi SSE 4.6 mph - 0.03 in Rain Light Rain
7:53 PM 63.0 °F 62.1 °F 97% 29.70 in 3.0 mi SE 8.1 mph - 0.04 in Rain Light Rain
8:53 PM 63.0 °F 62.1 °F 97% 29.70 in 6.0 mi SSE 10.4 mph - 0.05 in Rain Light Rain
9:01 PM 63.0 °F 62.1 °F 97% 29.70 in 6.0 mi SSE 9.2 mph - 0.01 in Rain Rain
9:30 PM 63.0 °F 62.1 °F 97% 29.72 in 6.0 mi SSE 8.1 mph - 0.02 in Rain Light Rain
9:42 PM 62.1 °F 61.0 °F 96% 29.70 in 6.0 mi SSE 11.5 mph - 0.03 in Rain Light Rain
9:53 PM 62.1 °F 61.0 °F 96% 29.73 in 6.0 mi SSE 11.5 mph - 0.03 in Rain Light Rain
10:53 PM 61.0 °F 60.1 °F 97% 29.74 in 8.0 mi South 5.8 mph - 0.00 in   Mostly Cloudy
11:01 PM 61.0 °F 60.1 °F 97% 29.73 in 10.0 mi South 6.9 mph - N/A   Scattered Clouds
11:53 PM 61.0 °F 59.0 °F 93% 29.74 in 10.0 mi South 5.8 mph - N/A   Partly Cloudy